FW3072 Weather Reports


time (UTC)temp
C
wind
direction
speed
KPH
gust
KPH
rain 1hr
cm
rain 24hr
cm
rain mn
cm
humidity
%
barometer
mb
20260906212204 21 359 9.7 17.7 0.00 0.00 0.00 65 1018.0
20260906211203 22 359 8.0 19.3 0.00 0.00 0.00 65 1018.0
20260906210204 22 359 8.0 16.1 0.00 0.00 0.00 64 1018.1
20260906205203 22 359 6.4 19.3 0.00 0.00 0.00 65 1018.1
20260906204205 22 359 4.8 16.1 0.00 0.00 0.00 66 1018.1
20260906203203 22 2 6.4 14.5 0.00 0.00 0.00 66 1018.1
20260906202204 22 359 9.7 19.3 0.00 0.00 0.00 70 1018.0
20260906201225 21 359 8.0 20.9 0.00 0.00 0.00 71 1018.0
20260906200204 22 1 9.7 20.9 0.00 0.00 0.00 70 1018.2
20260906195203 22 359 8.0 19.3 0.00 0.00 0.00 69 1018.2
20260906194204 22 359 8.0 19.3 0.00 0.00 0.00 71 1018.1
20260906193203 22 359 4.8 14.5 0.00 0.00 0.00 71 1018.0
20260906192205 22 359 9.7 22.5 0.00 0.00 0.00 70 1018.1
20260906191203 22 359 6.4 17.7 0.00 0.00 0.00 68 1018.0
20260906190205 22 359 4.8 9.7 0.00 0.00 0.00 71 1018.0
20260906185204 22 359 6.4 17.7 0.00 0.00 0.00 67 1018.0
20260906184203 22 356 4.8 17.7 0.00 0.00 0.00 70 1018.0
20260906183204 22 359 4.8 17.7 0.00 0.00 0.00 71 1018.0
20260906182203 22 359 3.2 16.1 0.00 0.00 0.00 67 1018.1
20260906181205 23 359 3.2 9.7 0.00 0.00 0.00 68 1018.1
20260906180204 23 1 6.4 14.5 0.00 0.00 0.00 68 1018.2
20260906175203 22 359 6.4 16.1 0.00 0.00 0.00 72 1018.1
20260906174203 22 359 1.6 14.5 0.00 0.00 0.00 70 1018.1
20260906173225 22 359 1.6 12.9 0.00 0.00 0.00 72 1018.1
20260906172204 22 359 6.4 14.5 0.00 0.00 0.00 72 1018.2
20260906171207 22 0 4.8 14.5 0.00 0.00 0.00 72 1018.1
20260906170204 21 1 6.4 14.5 0.00 0.00 0.00 73 1018.2
20260906165203 22 0 6.4 12.9 0.00 0.00 0.00 72 1018.3
20260906164204 22 359 8.0 22.5 0.00 0.00 0.00 72 1018.3
20260906163203 22 3 9.7 17.7 0.00 0.00 0.00 73 1018.3
20260906162205 22 359 6.4 20.9 0.00 0.00 0.00 75 1018.3
20260906161203 22 2 4.8 19.3 0.00 0.00 0.00 75 1018.3
20260906160204 21 359 3.2 14.5 0.00 0.00 0.00 79 1018.4
20260906155204 20 359 8.0 16.1 0.00 0.00 0.00 80 1018.4
20260906154205 20 359 6.4 16.1 0.00 0.00 0.00 80 1018.4
20260906152204 20 0 4.8 8.0 0.00 0.00 0.00 82 1018.5
20260906151203 20 2 4.8 12.9 0.00 0.00 0.00 82 1018.4
20260906150204 20 359 3.2 9.7 0.00 0.00 0.00 82 1018.2
20260906145205 20 359 4.8 12.9 0.00 0.00 0.00 83 1018.1
20260906144203 20 353 1.6 8.0 0.00 0.00 0.00 83 1018.0
20260906143204 20 359 3.2 14.5 0.00 0.00 0.00 84 1018.0
20260906142203 20 359 4.8 19.3 0.00 0.00 0.00 85 1018.0
20260906141205 19 359 8.0 19.3 0.00 0.00 0.00 86 1017.9
20260906140224 19 359 8.0 20.9 0.00 0.00 0.00 88 1017.9
20260906135205 19 359 8.0 19.3 0.00 0.00 0.00 89 1017.9
20260906134204 18 0 6.4 12.9 0.00 0.00 0.00 91 1017.8
20260906133204 18 359 4.8 19.3 0.00 0.00 0.00 92 1017.8
20260906132204 18 359 4.8 9.7 0.00 0.00 0.00 93 1017.7
20260906131203 18 359 4.8 12.9 0.00 0.00 0.00 94 1017.7
20260906130204 17 359 6.4 9.7 0.00 0.00 0.00 94 1017.7
20260906125224 17 359 4.8 12.9 0.00 0.00 0.00 94 1017.7
20260906124204 17 359 0.0 12.9 0.00 0.00 0.00 94 1017.6
20260906123203 16 359 3.2 8.0 0.00 0.00 0.00 94 1017.6
20260906122205 16 360 0.0 0.0 0.00 0.00 0.00 94 1017.4
20260906121206 15 360 0.0 0.0 0.00 0.00 0.00 94 1017.3
20260906120203 15 360 0.0 0.0 0.00 0.00 0.00 94 1017.3
20260906115203 15 360 0.0 0.0 0.00 0.00 0.00 93 1017.1
20260906114203 15 360 0.0 0.0 0.00 0.00 0.00 94 1017.1
20260906113225 15 360 0.0 0.0 0.00 0.00 0.00 94 1017.0
20260906112204 14 360 0.0 0.0 0.00 0.00 0.00 93 1017.1
20260906111203 14 360 0.0 0.0 0.00 0.00 0.00 93 1016.9
20260906110205 14 360 0.0 0.0 0.00 0.00 0.00 93 1016.8
20260906105203 14 360 0.0 0.0 0.00 0.00 0.00 93 1016.7
20260906104206 14 360 0.0 0.0 0.00 0.00 0.00 92 1016.5
20260906103227 15 360 0.0 0.0 0.00 0.00 0.00 93 1016.5
20260906102204 15 360 0.0 0.0 0.00 0.00 0.00 92 1016.4
20260906101203 15 360 0.0 0.0 0.00 0.00 0.00 92 1016.3
20260906100204 15 360 0.0 0.0 0.00 0.00 0.00 92 1016.3
20260906095203 15 360 0.0 0.0 0.00 0.00 0.00 92 1016.1
20260906094204 15 360 0.0 0.0 0.00 0.00 0.00 92 1016.2
20260906093204 15 360 0.0 0.0 0.00 0.00 0.00 92 1016.1
20260906092205 15 360 0.0 0.0 0.00 0.00 0.00 92 1015.8
20260906091224 15 360 0.0 0.0 0.00 0.00 0.00 92 1015.7
20260906090203 15 360 0.0 0.0 0.00 0.00 0.00 92 1015.7
20260906085203 15 360 0.0 0.0 0.00 0.00 0.00 92 1015.6
20260906084204 16 360 0.0 0.0 0.00 0.00 0.00 92 1015.5
20260906083203 16 360 0.0 0.0 0.00 0.00 0.00 92 1015.4
20260906082203 16 360 0.0 0.0 0.00 0.00 0.00 92 1015.3
20260906081203 16 360 0.0 0.0 0.00 0.00 0.00 92 1015.2
20260906080204 16 360 0.0 0.0 0.00 0.00 0.00 92 1015.2
20260906075205 16 360 0.0 0.0 0.00 0.00 0.00 91 1015.1
20260906074204 16 360 0.0 0.0 0.00 0.00 0.00 91 1015.0
20260906073227 17 360 0.0 0.0 0.00 0.00 0.00 91 1015.1
20260906072204 17 360 0.0 0.0 0.00 0.00 0.00 91 1015.0
20260906071224 17 360 0.0 0.0 0.00 0.00 0.00 91 1014.9
20260906070204 17 360 0.0 0.0 0.00 0.00 0.00 91 1015.0
20260906065203 17 360 0.0 0.0 0.00 0.00 0.00 91 1015.2
20260906064205 17 360 0.0 0.0 0.00 0.00 0.00 91 1015.2
20260906063203 17 360 0.0 0.0 0.00 0.00 0.00 91 1015.1
20260906062204 17 360 0.0 0.0 0.00 0.00 0.00 91 1015.1
20260906061203 17 360 0.0 0.0 0.00 0.00 0.00 91 1015.2
20260906060205 17 360 0.0 0.0 0.00 0.00 0.00 91 1015.1
20260906055204 17 360 0.0 0.0 0.00 0.00 0.00 91 1015.2
20260906054205 17 360 0.0 0.0 0.00 0.00 0.00 91 1015.2
20260906053204 17 360 0.0 0.0 0.00 0.00 0.00 90 1015.2
20260906052203 17 360 0.0 0.0 0.00 0.00 0.00 90 1015.2
20260906051206 17 360 0.0 0.0 0.00 0.00 0.00 90 1015.0
20260906050225 17 360 0.0 0.0 0.00 0.00 0.00 90 1015.0
20260906045225 17 360 0.0 0.0 0.00 0.00 0.00 90 1015.0
20260906044204 17 360 0.0 0.0 0.00 0.00 0.00 89 1015.0
20260906043203 17 360 0.0 0.0 0.00 0.00 0.00 89 1014.9
20260906042204 17 360 0.0 0.0 0.00 0.00 0.00 89 1015.0
20260906041203 17 360 0.0 0.0 0.00 0.00 0.00 89 1014.9
20260906040225 17 360 0.0 0.0 0.00 0.00 0.00 89 1014.8
20260906035205 17 360 0.0 0.0 0.00 0.00 0.00 89 1014.9
20260906034224 17 360 0.0 0.0 0.00 0.00 0.00 89 1014.9
20260906033203 17 360 0.0 0.0 0.00 0.00 0.00 88 1014.8
20260906032204 17 360 0.0 0.0 0.00 0.00 0.00 88 1014.7
20260906031204 17 360 0.0 0.0 0.00 0.00 0.00 88 1014.7
20260906030203 17 360 0.0 0.0 0.00 0.00 0.00 87 1014.6
20260906025205 17 360 0.0 0.0 0.00 0.00 0.00 87 1014.6
20260906024205 17 360 0.0 0.0 0.00 0.00 0.00 87 1014.7
20260906023203 17 360 0.0 0.0 0.00 0.00 0.00 86 1014.7
20260906022225 17 360 0.0 0.0 0.00 0.00 0.00 85 1014.6
20260906021225 17 360 0.0 0.0 0.00 0.00 0.00 84 1014.7
20260906015203 17 360 0.0 0.0 0.00 0.00 0.00 83 1014.4
20260906014205 17 360 0.0 0.0 0.00 0.00 0.00 82 1014.5
20260906013203 18 360 0.0 0.0 0.00 0.00 0.00 82 1014.4
20260906012225 18 360 0.0 0.0 0.00 0.00 0.00 82 1014.3
20260906011204 18 360 0.0 0.0 0.00 0.00 0.00 81 1014.3
20260906010204 18 360 0.0 0.0 0.00 0.00 0.00 81 1014.2
20260906005203 18 360 0.0 0.0 0.00 0.00 0.00 78 1014.1
20260906004204 18 360 0.0 0.0 0.00 0.00 0.00 78 1014.0
20260906003203 19 360 0.0 0.0 0.00 0.00 0.00 77 1014.1
20260906002204 19 360 0.0 0.0 0.00 0.00 0.00 76 1014.0
20260906001226 20 360 0.0 0.0 0.00 0.00 0.00 74 1013.9
20260906000226 20 360 0.0 0.0 0.00 0.00 0.00 74 1013.8
20260905235225 20 360 0.0 0.0 0.00 0.00 0.00 73 1013.8
20260905234226 21 360 0.0 0.0 0.00 0.00 0.00 70 1013.9
20260905233203 21 360 0.0 0.0 0.00 0.00 0.00 69 1014.0
20260905232204 22 360 0.0 0.0 0.00 0.00 0.00 68 1014.0
20260905231203 22 359 0.0 4.8 0.00 0.00 0.00 67 1013.9
20260905230204 22 359 0.0 8.0 0.00 0.00 0.00 66 1014.0
20260905225204 22 359 4.8 8.0 0.00 0.00 0.00 64 1013.9
20260905224204 22 359 4.8 9.7 0.00 0.00 0.00 64 1013.9
20260905223205 22 359 0.0 3.2 0.00 0.00 0.00 64 1013.8
20260905222203 22 359 4.8 9.7 0.00 0.00 0.00 64 1013.8
20260905221204 22 359 4.8 9.7 0.00 0.00 0.00 64 1013.9
20260905215204 22 360 0.0 6.4 0.00 0.00 0.00 65 1013.7
20260905214204 22 360 0.0 6.4 0.00 0.00 0.00 64 1013.6
20260905213204 22 359 4.8 14.5 0.00 0.00 0.00 64 1013.6